DW9403 Weather Reports


Display with metric or nautical units.
time (UTC)temp
F
wind
direction
speed
MPH
gust
MPH
rain 1hr
in
rain 24hr
in
rain mn
in
humidity
%
barometer
mb
20260506061533 58 113 0.0 0.0 0.00 0.00 0.00 81 1015.6
20260506044524 58 284 0.0 0.0 0.00 0.00 0.00 80 1015.1
20260506043024 58 284 0.0 0.0 0.00 0.00 0.00 79 1015.0
20260506041523 58 284 0.0 0.0 0.00 0.00 0.00 80 1014.9
20260506040023 58 284 0.0 0.0 0.00 0.00 0.00 80 1014.8
20260506034523 58 284 0.0 0.0 0.00 0.00 0.00 80 1014.7
20260506033023 59 284 0.0 0.0 0.00 0.00 0.00 80 1014.4
20260506031523 59 284 0.0 0.0 0.00 0.00 0.00 79 1014.4
20260506030029 59 284 0.0 0.0 0.00 0.00 0.00 78 1014.2
20260506024536 59 284 0.0 0.0 0.00 0.00 0.00 79 1014.1
20260506023021 59 284 0.0 0.0 0.00 0.00 0.00 78 1014.0
20260506021522 60 284 0.0 0.0 0.00 0.00 0.00 79 1013.9
20260506020019 60 284 0.0 0.0 0.00 0.00 0.00 78 1014.0
20260506014520 60 284 0.0 0.0 0.00 0.00 0.00 78 1014.0
20260506013020 60 284 0.0 0.0 0.00 0.00 0.00 77 1013.9
20260506011520 60 285 0.0 0.0 0.00 0.00 0.00 77 1013.9
20260506010020 60 285 0.0 0.0 0.00 0.00 0.00 77 1013.9
20260506004517 61 288 0.0 0.0 0.00 0.00 0.00 76 1013.9
20260506003018 61 289 0.0 0.0 0.00 0.00 0.00 76 1014.0
20260506001519 60 278 0.0 0.0 0.00 0.00 0.00 76 1014.0
20260506000016 60 275 0.0 0.0 0.00 0.00 0.00 76 1014.2
20260505234526 61 277 0.0 0.0 0.00 0.00 0.00 77 1014.4
20260505233020 61 238 0.0 0.0 0.00 0.00 0.00 77 1014.4
20260505231516 61 277 0.0 0.0 0.00 0.00 0.00 77 1014.5
20260505230032 61 238 0.0 0.0 0.00 0.00 0.00 76 1014.4
20260505224515 61 261 0.0 0.0 0.00 0.00 0.00 77 1014.5
20260505223014 61 288 0.0 0.0 0.00 0.00 0.00 76 1014.5
20260505221514 61 288 0.0 0.0 0.00 0.00 0.00 74 1014.6
20260505220012 62 288 0.0 0.0 0.00 0.00 0.00 73 1014.6
20260505214512 62 286 0.0 0.0 0.00 0.00 0.00 72 1014.6
20260505213011 61 234 0.0 0.0 0.00 0.00 0.00 78 1014.7
20260505211513 61 264 0.0 0.0 0.00 0.00 0.00 75 1014.8
20260505210005 60 269 0.0 0.0 0.00 0.00 0.00 75 1014.9
20260505204502 59 263 0.0 0.0 0.00 0.00 0.00 79 1015.0
20260505203003 58 231 0.0 0.0 0.00 0.00 0.00 80 1015.1
20260505201501 58 210 0.0 0.0 0.00 0.00 0.00 79 1015.2
20260505200002 58 294 0.0 0.0 0.00 0.00 0.00 82 1015.2
20260505194600 58 200 0.0 0.0 0.00 0.00 0.00 82 1015.1
20260505193100 57 171 0.0 0.0 0.00 0.00 0.00 85 1015.2
20260505191625 56 194 0.0 0.0 0.00 0.00 0.00 84 1015.2
20260505190058 56 188 0.0 0.0 0.00 0.00 0.00 85 1015.2
20260505184558 56 271 0.0 0.0 0.00 0.00 0.00 85 1015.2
20260505183057 56 281 0.0 0.0 0.00 0.00 0.00 85 1015.2
20260505181557 55 287 0.0 0.0 0.00 0.00 0.00 87 1015.2
20260505180105 54 286 0.0 0.0 0.00 0.00 0.00 87 1015.2
20260505174609 54 135 0.0 0.0 0.00 0.00 0.00 89 1015.2
20260505173055 53 136 0.0 0.0 0.00 0.00 0.00 89 1015.1
20260505171554 53 135 0.0 0.0 0.00 0.00 0.00 90 1015.0
20260505170052 53 134 0.0 0.0 0.00 0.00 0.00 90 1015.0
20260505164553 53 134 0.0 0.0 0.00 0.00 0.00 91 1014.8
20260505163051 53 134 0.0 0.0 0.00 0.00 0.00 91 1014.8
20260505161554 52 132 0.0 0.0 0.00 0.00 0.00 92 1014.7
20260505153048 52 132 0.0 0.0 0.00 0.00 0.00 93 1014.6
20260505151547 52 129 0.0 0.0 0.00 0.00 0.00 93 1014.6
20260505124535 52 160 0.0 0.0 0.00 0.00 0.00 89 1013.6
20260505123036 52 160 0.0 0.0 0.00 0.00 0.00 89 1013.6
20260505121532 52 160 0.0 0.0 0.00 0.00 0.00 88 1013.5
20260505120031 52 160 0.0 0.0 0.00 0.00 0.00 88 1013.5
20260505114530 53 161 0.0 0.0 0.00 0.00 0.00 88 1013.4
20260505113028 53 161 0.0 0.0 0.00 0.00 0.00 87 1013.4
20260505111528 53 157 0.0 0.0 0.00 0.00 0.00 87 1013.4
20260505101536 53 199 0.0 0.0 0.00 0.00 0.00 86 1012.9
20260505100042 53 159 0.0 0.0 0.00 0.00 0.00 86 1013.0
20260505094520 54 198 0.0 0.0 0.00 0.00 0.00 86 1012.8
20260505093022 54 198 0.0 0.0 0.00 0.00 0.00 86 1012.7
20260505091519 54 192 0.0 0.0 0.00 0.00 0.00 86 1012.6
20260505090013 54 143 0.0 0.0 0.00 0.00 0.00 86 1012.6
20260505084512 55 149 0.0 0.0 0.00 0.00 0.00 85 1012.3
20260505083009 55 157 0.0 0.0 0.00 0.00 0.00 84 1012.4
20260505081511 55 169 0.0 0.0 0.00 0.00 0.00 83 1012.2
20260505080005 56 124 0.0 0.0 0.00 0.00 0.00 83 1012.0
20260505074503 56 185 0.0 0.0 0.00 0.00 0.00 82 1012.0
20260505073105 57 146 0.0 0.0 0.00 0.00 0.00 81 1011.8
20260505071558 58 128 0.0 0.0 0.00 0.00 0.00 79 1011.5
20260505070058 59 182 0.0 0.0 0.00 0.00 0.00 77 1011.4